Résultats de la compétition "Moyenne Distance ADOC" du 12-05-2007 organisée par le club 2105
     
  Télécharger le fichier CSV.  
     
     

 Circuit "Circuit C"

Licence Nom Prénom Temps CN
précédent
Score sur
la course
Différence
13198DESREUMAUXEdouard0:29:29N/A4789N/A
4120TREZEGUETNicolas0:29:44N/A4748N/A
4374BONNEAUMaxime0:30:08N/A4685N/A
14672BLANC-TRANCHANTOlivier0:31:10N/A4530N/A
14782CHARONSimon0:31:28N/A4487N/A
8550CLOUARDCamille0:31:35N/A4470N/A
4183RAUTURIERCamille0:32:18N/A4371N/A
11655ANDRECamille0:32:50N/A4300N/A
9427LERICHEClotilde0:33:11N/A4255N/A
10561DUPOIRIEUXJules0:34:07N/A4138N/A
5436FLAMBEAUMathilde0:35:23N/A3990N/A
8922ROULLEAUXNoemie0:36:37N/A3856N/A
13674BLUMMarie0:36:51N/A3831N/A
2401DEVILLENelly0:37:05N/A3807N/A
8359MONTERRATAmandine0:37:10N/A3799N/A
922PREVOSTPascale0:37:39N/A3750N/A
13937ERTELKelly0:38:24N/A3677N/A
4182RAUTURIERMaxime0:39:44N/A3553N/A
1992MOULINPatricia0:39:55N/A3537N/A
14739HILTGUNLuca0:40:03N/A3525N/A
8921ROULLEAUXMaeva0:40:21N/A3499N/A
12357RINGOTAlexis0:40:27N/A3490N/A
13933BREDOUXGaspard0:41:08N/A3432N/A
13554CHATAINGClement0:41:11N/A3428N/A
17577FACHAUXAngélique0:41:40N/A3388N/A
15016GUINOTRémi0:41:55N/A3368N/A
17027CHAVANCEManon0:42:06N/A3353N/A
4181RAUTURIERBenoit0:42:27N/A3326N/A
14665SZYMANOWSKIValentin0:42:31N/A3321N/A
15787ROCHEFanny0:43:18N/A3261N/A
10310GIROUXThomas0:43:36N/A3238N/A
9932BASSETIsia0:43:44N/A3228N/A
9475GIREFlorie0:45:26N/A3107N/A
1400HERMETM-Pierre0:45:38N/A3094N/A
12583MAUDETCecile0:45:58N/A3071N/A
633DUBROCAMonique0:46:52N/A3012N/A
2533MONTANARIColette0:47:08N/A2995N/A
6491ROBERTFrancoise0:47:39N/A2963N/A
12041SEUXThomas0:47:49N/A2953N/A
16826BOISSERIESylvain0:48:12N/A2929N/A
6094LEROUEILM-Paule0:49:02N/A2879N/A
18611LANQUETINCéline0:49:15N/A2867N/A
12102BOUVERETMichelle0:49:18N/A2864N/A
8108LELOUPAnouk0:49:59N/A2825N/A
363THIERRY-FISCHERChri0:50:42N/A2785N/A
6391BARRIERSimon0:50:50N/A2777N/A
5464DENAIXMaylis0:51:47N/A2726N/A
17618ECKESElise0:54:01N/A2614N/A
6886FRANTZFrancoise0:54:37N/A2585N/A
841GATYDaniele0:54:49N/A2576N/A
4597CERETMartine0:54:50N/A2575N/A
8180L'HUILLIERPhilippe0:55:39N/A2537N/A
2329MOISSETNicole0:56:22N/A2505N/A
15113QUENTINSophie0:56:40N/A2491N/A
701ABISSEGisele0:56:42N/A2490N/A
6706LETOUBLONAndrea0:56:52N/A2483N/A
4378PAOLUCCIChristiane0:57:08N/A2471N/A
2446RIFFARDM-Lucie0:57:27N/A2457N/A
16956GALETElisabeth0:58:38N/A2408N/A
5607LAMBERTNadine0:58:48N/A2401N/A
11707CHAILLARDFabien0:58:58N/A2394N/A
931SIMONETMarie1:00:46N/A2323N/A
18632CUVILLIERSPerrine1:01:33N/A2294N/A
15896DANELJulien1:02:47N/A2249N/A
16094TRINMadeline1:02:57N/A2243N/A
725LAURENTTherese1:03:37N/A2219N/A
1087ROBERTMartine1:04:13N/A2199N/A
10745MAINERoxane1:05:37N/A2152N/A
16825BAYLOTClement1:06:11N/A2133N/A
10417HOFFGeoffrey1:08:35N/A2059N/A
2439MASSONPatricia1:08:41N/A2056N/A
11810GUETMartine1:08:41N/A2056N/A
2680KIEFFERMireille1:08:46N/A2053N/A
15894LUDEWIG-JAMESCarol1:09:32N/A2030N/A
18400FALQUEEmilie1:10:04N/A2015N/A
2070GOUYERTherese1:12:22N/A1951N/A
17028PIERREMaxime1:12:32N/A1946N/A
2761PAPILLONFrancoise1:12:47N/A1940N/A
9278BOUSSERElodie1:12:51N/A1938N/A
7574OUDINM-Reine1:13:22N/A1924N/A
3302JEANPIERREM-Therese1:14:02N/A1907N/A
11368LAUNEYNoella1:17:24N/A1824N/A
2885LECOYERAnnick1:17:34N/A1820N/A
18931MAUVILLYKarine1:17:35N/A1820N/A
13991POUPIERClaudine1:19:00N/A1787N/A
17657DUCATAntonia1:20:16N/A1759N/A
15400PRADALElodie1:20:42N/A1749N/A
14632ALLANCONClaudine1:20:44N/A1749N/A
5526MANONelly1:23:12N/A1697N/A
14002DUBOISSylvie1:23:39N/A1688N/A
836PARETOdette1:27:19N/A1617N/A
454GUIGUETAntoinette1:35:05N/A1485N/A
4733KOWALCZYKCorinne1:35:22N/A1480N/A
4490THIEBAULTM-Paule1:35:24N/A1480N/A
2413ROLLETM-Madeleine1:39:56N/A1413N/A
2406LIONNETM-Jeanne2:16:43N/A1033N/A
14021QUEYROIYvette2:22:00N/A994N/A
16987DINETRobertN/AN/A0N/A
310JOLYMauricetteN/AN/A0N/A
17082SCHAMBERGERAnneN/AN/A0N/A
3674CHALOPINCatherineN/AN/A0N/A
295PEETERSSimoneN/AN/A0N/A

  Indice de confiance du circuit (moyenne des différences entre CN et score sur la course des 3 à 10 premiers) : 92






 Retour